• In Österreich
  • Länderverzeichnis
  • Für 7 Tage
  • Wassertemperatur
  • Satellitenkarten
  • Wetterkarte
  • News
  • Widgets
  • user-avatar
    Anmelden

    Stündliche Wetter Melbourne

    Heute, 22 Oktober, Montag

    Zeit Temperatur Niederschläge Wind Luftdruck Luftfeuchtigkeit
    00:00 +11°C° 0 mm 1 m/S 761 mmHg 85%
    01:00 +11°C° 0 mm 1 m/S 760 mmHg 85%
    02:00 +9°C° 0 mm 2 m/S 760 mmHg 84%
    03:00 +9°C° 0 mm 2 m/S 760 mmHg 84%
    04:00 +10°C° 0 mm 3 m/S 760 mmHg 81%
    05:00 +12°C° 0 mm 3 m/S 759 mmHg 76%
    06:00 +13°C° 0 mm 3 m/S 759 mmHg 70%
    07:00 +14°C° 0 mm 4 m/S 759 mmHg 65%
    08:00 +18°C° 0 mm 4 m/S 759 mmHg 57%
    09:00 +20°C° 0 mm 5 m/S 759 mmHg 49%
    10:00 +22°C° 0 mm 6 m/S 759 mmHg 40%
    11:00 +24°C° 0 mm 6 m/S 758 mmHg 38%
    12:00 +26°C° 0 mm 5 m/S 758 mmHg 36%
    13:00 +27°C° 0 mm 5 m/S 757 mmHg 33%
    14:00 +27°C° 0 mm 5 m/S 757 mmHg 35%
    15:00 +27°C° 0 mm 5 m/S 756 mmHg 36%
    16:00 +28°C° 0 mm 5 m/S 756 mmHg 37%
    17:00 +26°C° 0 mm 5 m/S 756 mmHg 41%
    18:00 +23°C° 0 mm 4 m/S 756 mmHg 45%
    19:00 +21°C° 0 mm 4 m/S 756 mmHg 49%
    20:00 +20°C° 0 mm 4 m/S 756 mmHg 49%
    21:00 +20°C° 0 mm 4 m/S 757 mmHg 49%
    22:00 +19°C° 0 mm 4 m/S 757 mmHg 48%
    23:00 +18°C° 0 mm 3 m/S 757 mmHg 55%

    Morgen, 23 Oktober, Dienstag

    Zeit Temperatur Niederschläge Wind Luftdruck Luftfeuchtigkeit
    00:00 +16°C° 0 mm 3 m/S 757 mmHg 61%
    01:00 +15°C° 0 mm 2 m/S 756 mmHg 67%
    02:00 +14°C° 0 mm 2 m/S 757 mmHg 72%
    03:00 +13°C° 0 mm 2 m/S 757 mmHg 76%
    04:00 +13°C° 0 mm 1 m/S 757 mmHg 81%
    05:00 +13°C° 0 mm 2 m/S 757 mmHg 80%
    06:00 +14°C° 0 mm 2 m/S 758 mmHg 79%
    07:00 +14°C° 0 mm 2 m/S 758 mmHg 79%
    08:00 +14°C° 0 mm 3 m/S 758 mmHg 73%
    09:00 +17°C° 0 mm 3 m/S 759 mmHg 67%
    10:00 +18°C° 0 mm 4 m/S 759 mmHg 61%
    11:00 +19°C° 0 mm 4 m/S 759 mmHg 56%
    12:00 +19°C° 0 mm 4 m/S 759 mmHg 51%
    13:00 +20°C° 0 mm 4 m/S 759 mmHg 47%
    14:00 +19°C° 0 mm 4 m/S 759 mmHg 50%
    15:00 +18°C° 0 mm 4 m/S 760 mmHg 53%
    16:00 +16°C° 0 mm 5 m/S 760 mmHg 56%
    17:00 +15°C° 0 mm 4 m/S 761 mmHg 59%
    18:00 +14°C° 0 mm 4 m/S 762 mmHg 63%
    19:00 +12°C° 0 mm 3 m/S 762 mmHg 66%
    20:00 +11°C° 0 mm 3 m/S 763 mmHg 68%
    21:00 +11°C° 0 mm 3 m/S 764 mmHg 69%
    22:00 +10°C° 0 mm 3 m/S 765 mmHg 71%
    23:00 +9°C° 0 mm 3 m/S 765 mmHg 74%

    übermorgen, 24 Oktober, Mittwoch

    Zeit Temperatur Niederschläge Wind Luftdruck Luftfeuchtigkeit
    00:00 +8°C° 0 mm 2 m/S 765 mmHg 78%
    01:00 +7°C° 0 mm 2 m/S 766 mmHg 81%
    02:00 +7°C° 0 mm 2 m/S 766 mmHg 84%
    03:00 +6°C° 0 mm 2 m/S 766 mmHg 86%
    04:00 +6°C° 0 mm 2 m/S 766 mmHg 89%
    05:00 +7°C° 0 mm 2 m/S 766 mmHg 84%
    06:00 +8°C° 0 mm 2 m/S 767 mmHg 79%
    07:00 +9°C° 0 mm 2 m/S 767 mmHg 75%
    08:00 +12°C° 0 mm 2 m/S 767 mmHg 67%
    09:00 +14°C° 0 mm 2 m/S 767 mmHg 58%
    10:00 +15°C° 0 mm 2 m/S 767 mmHg 50%
    11:00 +16°C° 0 mm 3 m/S 767 mmHg 47%
    12:00 +17°C° 0 mm 3 m/S 766 mmHg 44%
    13:00 +18°C° 0 mm 3 m/S 766 mmHg 42%
    14:00 +18°C° 0 mm 3 m/S 765 mmHg 43%
    15:00 +18°C° 0 mm 3 m/S 765 mmHg 43%
    16:00 +18°C° 0 mm 4 m/S 764 mmHg 44%
    17:00 +16°C° 0 mm 3 m/S 765 mmHg 51%
    18:00 +13°C° 0 mm 3 m/S 765 mmHg 58%
    19:00 +11°C° 0 mm 3 m/S 765 mmHg 65%
    20:00 +10°C° 0 mm 3 m/S 765 mmHg 71%
    21:00 +9°C° 0 mm 3 m/S 766 mmHg 77%
    22:00 +8°C° 0 mm 2 m/S 766 mmHg 83%
    23:00 +8°C° 0 mm 2 m/S 766 mmHg 85%

    25 Oktober, Donnerstag

    Zeit Temperatur Niederschläge Wind Luftdruck Luftfeuchtigkeit
    00:00 +8°C° 0 mm 1 m/S 765 mmHg 88%
    01:00 +8°C° 0 mm 1 m/S 765 mmHg 90%
    02:00 +8°C° 0 mm 1 m/S 765 mmHg 90%
    03:00 +8°C° 0 mm 1 m/S 764 mmHg 89%
    04:00 +8°C° 0 mm 1 m/S 764 mmHg 89%
    05:00 +9°C° 0 mm 1 m/S 764 mmHg 83%
    06:00 +9°C° 0 mm 2 m/S 764 mmHg 77%
    07:00 +12°C° 0 mm 2 m/S 764 mmHg 71%
    08:00 +15°C° 0 mm 2 m/S 763 mmHg 61%
    09:00 +18°C° 0 mm 3 m/S 763 mmHg 52%
    10:00 +20°C° 0 mm 3 m/S 763 mmHg 43%
    11:00 +22°C° 0 mm 3 m/S 763 mmHg 39%
    12:00 +24°C° 0 mm 3 m/S 762 mmHg 35%
    13:00 +25°C° 0 mm 3 m/S 762 mmHg 31%
    14:00 +25°C° 0 mm 4 m/S 762 mmHg 33%
    15:00 +23°C° 0 mm 4 m/S 761 mmHg 35%
    16:00 +23°C° 0 mm 5 m/S 761 mmHg 38%
    17:00 +20°C° 0 mm 4 m/S 761 mmHg 48%
    18:00 +18°C° 0 mm 4 m/S 762 mmHg 59%
    19:00 +14°C° 0 mm 4 m/S 762 mmHg 69%
    20:00 +13°C° 0 mm 3 m/S 763 mmHg 76%
    21:00 +13°C° 0 mm 2 m/S 763 mmHg 83%
    22:00 +10°C° 0 mm 2 m/S 764 mmHg 90%
    23:00 +10°C° 0 mm 2 m/S 764 mmHg 92%

    26 Oktober, Freitag

    Zeit Temperatur Niederschläge Wind Luftdruck Luftfeuchtigkeit
    00:00 +9°C° 0 mm 2 m/S 764 mmHg 93%
    01:00 +9°C° 0 mm 2 m/S 763 mmHg 95%
    02:00 +8°C° 0 mm 2 m/S 763 mmHg 95%
    03:00 +8°C° 0 mm 2 m/S 763 mmHg 96%
    04:00 +8°C° 0 mm 2 m/S 763 mmHg 96%
    05:00 +8°C° 0 mm 2 m/S 764 mmHg 93%
    06:00 +9°C° 0 mm 2 m/S 764 mmHg 90%
    07:00 +10°C° 0 mm 2 m/S 764 mmHg 87%
    08:00 +13°C° 0 mm 2 m/S 764 mmHg 77%
    09:00 +16°C° 0 mm 2 m/S 764 mmHg 67%
    10:00 +18°C° 0 mm 2 m/S 764 mmHg 56%
    11:00 +19°C° 0 mm 2 m/S 763 mmHg 52%
    12:00 +20°C° 0 mm 2 m/S 763 mmHg 47%
    13:00 +21°C° 0 mm 2 m/S 762 mmHg 43%
    14:00 +21°C° 0 mm 2 m/S 762 mmHg 43%
    15:00 +21°C° 0 mm 2 m/S 761 mmHg 42%
    16:00 +23°C° 0 mm 2 m/S 761 mmHg 42%
    17:00 +19°C° 0 mm 2 m/S 761 mmHg 50%
    18:00 +17°C° 0 mm 2 m/S 761 mmHg 59%
    19:00 +15°C° 0 mm 2 m/S 761 mmHg 67%
    20:00 +14°C° 0 mm 1 m/S 761 mmHg 69%
    21:00 +13°C° 0 mm 1 m/S 761 mmHg 72%
    22:00 +13°C° 0 mm 1 m/S 762 mmHg 75%
    23:00 +13°C° 0 mm 1 m/S 761 mmHg 75%

    27 Oktober, Samstag

    Zeit Temperatur Niederschläge Wind Luftdruck Luftfeuchtigkeit
    00:00 +12°C° 0 mm 1 m/S 760 mmHg 75%
    01:00 +12°C° 0 mm 1 m/S 760 mmHg 76%
    02:00 +12°C° 0 mm 1 m/S 759 mmHg 75%
    03:00 +13°C° 0 mm 1 m/S 759 mmHg 75%
    04:00 +13°C° 0 mm 2 m/S 758 mmHg 74%
    05:00 +14°C° 0 mm 2 m/S 758 mmHg 71%
    06:00 +15°C° 0 mm 2 m/S 757 mmHg 68%
    07:00 +16°C° 0 mm 3 m/S 757 mmHg 65%
    08:00 +17°C° 0.2 mm 3 m/S 757 mmHg 66%
    09:00 +19°C° 0.2 mm 3 m/S 757 mmHg 66%
    10:00 +20°C° 0.2 mm 3 m/S 756 mmHg 66%
    11:00 +19°C° 1.5 mm 4 m/S 756 mmHg 73%
    12:00 +19°C° 1.5 mm 4 m/S 756 mmHg 80%
    13:00 +18°C° 1.5 mm 4 m/S 755 mmHg 87%
    14:00 +19°C° 0.7 mm 4 m/S 755 mmHg 86%
    15:00 +19°C° 0.7 mm 4 m/S 754 mmHg 85%
    16:00 +20°C° 0.7 mm 3 m/S 754 mmHg 84%
    17:00 +19°C° 1.2 mm 3 m/S 754 mmHg 88%
    18:00 +18°C° 1.2 mm 2 m/S 754 mmHg 92%
    19:00 +17°C° 1.2 mm 2 m/S 755 mmHg 97%
    20:00 +17°C° 0.4 mm 2 m/S 755 mmHg 97%
    21:00 +16°C° 0.4 mm 3 m/S 755 mmHg 97%
    22:00 +16°C° 0.4 mm 3 m/S 755 mmHg 97%
    23:00 +14°C° 0.3 mm 3 m/S 755 mmHg 97%

    28 Oktober, Sonntag

    Zeit Temperatur Niederschläge Wind Luftdruck Luftfeuchtigkeit
    00:00 +14°C° 0.3 mm 3 m/S 756 mmHg 96%
    01:00 +13°C° 0.3 mm 4 m/S 756 mmHg 96%
    02:00 +13°C° 0.1 mm 4 m/S 756 mmHg 96%
    03:00 +12°C° 0.1 mm 4 m/S 756 mmHg 96%
    04:00 +12°C° 0.1 mm 4 m/S 756 mmHg 96%
    05:00 +12°C° 0.1 mm 4 m/S 757 mmHg 95%
    06:00 +12°C° 0.1 mm 4 m/S 757 mmHg 93%
    07:00 +12°C° 0.1 mm 5 m/S 758 mmHg 92%
    08:00 +13°C° 0.1 mm 5 m/S 758 mmHg 86%
    09:00 +13°C° 0.1 mm 6 m/S 759 mmHg 79%
    10:00 +14°C° 0.1 mm 6 m/S 759 mmHg 72%
    11:00 +15°C° 0 mm 6 m/S 759 mmHg 65%
    12:00 +15°C° 0 mm 6 m/S 759 mmHg 59%
    13:00 +16°C° 0 mm 7 m/S 759 mmHg 52%
    14:00 +16°C° 0 mm 7 m/S 759 mmHg 54%
    15:00 +15°C° 0 mm 6 m/S 760 mmHg 55%
    16:00 +15°C° 0 mm 6 m/S 760 mmHg 57%
    17:00 +14°C° 0 mm 6 m/S 761 mmHg 63%
    18:00 +12°C° 0 mm 5 m/S 761 mmHg 68%
    19:00 +11°C° 0 mm 4 m/S 762 mmHg 74%
    20:00 +10°C° 0 mm 4 m/S 763 mmHg 78%
    21:00 +10°C° 0 mm 4 m/S 763 mmHg 81%
    22:00 +9°C° 0 mm 3 m/S 764 mmHg 85%
    23:00 +9°C° 0 mm 3 m/S 764 mmHg 87%
    Mehr zeigen